When you browse on this site, cookies collect data to enhance your experience and personalize the content and advertising you see.
Visit our Privacy Policy to learn more. By continuing to use the site, you agree to this use of cookies and data.
  • In Österreich
  • Länderverzeichnis
  • Für 7 Tage
  • Wassertemperatur
  • Satellitenkarten
  • Wetterkarte
  • News
  • Widgets
  • user-avatar
    Anmelden

    Stündliche Wetter Andon

    Heute, 26 Mai, Sonntag

    Zeit Temperatur Niederschläge Wind Luftdruck Luftfeuchtigkeit
    00:00 +18°C° 0 mm 0 m/S 749 mmHg 58%
    01:00 +18°C° 0 mm 0 m/S 749 mmHg 58%
    02:00 +17°C° 0 mm 0 m/S 749 mmHg 57%
    03:00 +17°C° 0 mm 0 m/S 749 mmHg 56%
    04:00 +17°C° 0 mm 0 m/S 749 mmHg 57%
    05:00 +17°C° 0 mm 0 m/S 750 mmHg 59%
    06:00 +17°C° 0 mm 0 m/S 750 mmHg 60%
    07:00 +20°C° 0 mm 0 m/S 750 mmHg 53%
    08:00 +24°C° 0 mm 1 m/S 750 mmHg 47%
    09:00 +27°C° 0 mm 1 m/S 750 mmHg 39%
    10:00 +29°C° 0 mm 2 m/S 750 mmHg 34%
    11:00 +30°C° 0 mm 3 m/S 749 mmHg 29%
    12:00 +33°C° 0 mm 4 m/S 749 mmHg 25%
    13:00 +33°C° 0 mm 4 m/S 749 mmHg 24%
    14:00 +33°C° 0 mm 4 m/S 749 mmHg 24%
    15:00 +33°C° 0 mm 4 m/S 748 mmHg 24%
    16:00 +32°C° 0 mm 4 m/S 748 mmHg 29%
    17:00 +29°C° 0 mm 3 m/S 748 mmHg 34%
    18:00 +27°C° 0 mm 3 m/S 747 mmHg 39%
    19:00 +25°C° 0 mm 2 m/S 747 mmHg 43%
    20:00 +23°C° 0 mm 2 m/S 747 mmHg 46%
    21:00 +21°C° 0 mm 1 m/S 747 mmHg 48%
    22:00 +20°C° 0 mm 1 m/S 747 mmHg 52%
    23:00 +20°C° 0 mm 1 m/S 747 mmHg 56%

    Morgen, 27 Mai, Montag

    Zeit Temperatur Niederschläge Wind Luftdruck Luftfeuchtigkeit
    00:00 +19°C° 0 mm 1 m/S 747 mmHg 61%
    01:00 +19°C° 0 mm 1 m/S 747 mmHg 64%
    02:00 +19°C° 0 mm 1 m/S 747 mmHg 67%
    03:00 +20°C° 0 mm 1 m/S 746 mmHg 70%
    04:00 +19°C° 0.3 mm 1 m/S 746 mmHg 73%
    05:00 +18°C° 0.3 mm 2 m/S 745 mmHg 77%
    06:00 +18°C° 0.3 mm 2 m/S 745 mmHg 80%
    07:00 +18°C° 3.1 mm 2 m/S 744 mmHg 85%
    08:00 +18°C° 3.1 mm 2 m/S 744 mmHg 90%
    09:00 +18°C° 3.1 mm 2 m/S 743 mmHg 96%
    10:00 +18°C° 2.3 mm 3 m/S 743 mmHg 95%
    11:00 +19°C° 2.3 mm 3 m/S 742 mmHg 95%
    12:00 +19°C° 2.3 mm 4 m/S 741 mmHg 94%
    13:00 +19°C° 1.3 mm 4 m/S 741 mmHg 94%
    14:00 +19°C° 1.3 mm 4 m/S 740 mmHg 94%
    15:00 +19°C° 1.3 mm 4 m/S 739 mmHg 94%
    16:00 +20°C° 0.1 mm 4 m/S 739 mmHg 94%
    17:00 +20°C° 0.1 mm 4 m/S 739 mmHg 94%
    18:00 +21°C° 0.1 mm 4 m/S 739 mmHg 94%
    19:00 +20°C° 0.3 mm 5 m/S 739 mmHg 93%
    20:00 +19°C° 0.3 mm 5 m/S 740 mmHg 93%
    21:00 +17°C° 0.3 mm 6 m/S 740 mmHg 92%
    22:00 +15°C° 0 mm 5 m/S 740 mmHg 91%
    23:00 +14°C° 0 mm 5 m/S 741 mmHg 90%

    übermorgen, 28 Mai, Dienstag

    Zeit Temperatur Niederschläge Wind Luftdruck Luftfeuchtigkeit
    00:00 +13°C° 0 mm 5 m/S 742 mmHg 89%
    01:00 +12°C° 0 mm 4 m/S 742 mmHg 90%
    02:00 +11°C° 0 mm 3 m/S 742 mmHg 91%
    03:00 +12°C° 0 mm 2 m/S 743 mmHg 92%
    04:00 +10°C° 0 mm 2 m/S 743 mmHg 91%
    05:00 +11°C° 0 mm 1 m/S 744 mmHg 91%
    06:00 +11°C° 0 mm 1 m/S 744 mmHg 90%
    07:00 +13°C° 0 mm 1 m/S 745 mmHg 79%
    08:00 +16°C° 0 mm 2 m/S 745 mmHg 68%
    09:00 +18°C° 0 mm 2 m/S 745 mmHg 57%
    10:00 +20°C° 0 mm 3 m/S 746 mmHg 49%
    11:00 +21°C° 0 mm 3 m/S 746 mmHg 41%
    12:00 +23°C° 0 mm 4 m/S 746 mmHg 34%
    13:00 +25°C° 0 mm 4 m/S 746 mmHg 32%
    14:00 +26°C° 0 mm 4 m/S 745 mmHg 30%
    15:00 +26°C° 0 mm 4 m/S 745 mmHg 28%
    16:00 +26°C° 0 mm 4 m/S 745 mmHg 33%
    17:00 +25°C° 0 mm 3 m/S 745 mmHg 39%
    18:00 +24°C° 0 mm 2 m/S 745 mmHg 44%
    19:00 +20°C° 0 mm 2 m/S 745 mmHg 49%
    20:00 +18°C° 0 mm 2 m/S 745 mmHg 54%
    21:00 +15°C° 0 mm 2 m/S 745 mmHg 59%
    22:00 +14°C° 0 mm 1 m/S 745 mmHg 61%
    23:00 +13°C° 0 mm 1 m/S 746 mmHg 64%

    29 Mai, Mittwoch

    Zeit Temperatur Niederschläge Wind Luftdruck Luftfeuchtigkeit
    00:00 +12°C° 0 mm 1 m/S 746 mmHg 67%
    01:00 +12°C° 0 mm 1 m/S 745 mmHg 67%
    02:00 +11°C° 0 mm 1 m/S 745 mmHg 67%
    03:00 +9°C° 0 mm 0 m/S 745 mmHg 68%
    04:00 +10°C° 0 mm 0 m/S 745 mmHg 69%
    05:00 +10°C° 0 mm 0 m/S 745 mmHg 71%
    06:00 +10°C° 0 mm 0 m/S 745 mmHg 72%
    07:00 +14°C° 0 mm 1 m/S 745 mmHg 65%
    08:00 +18°C° 0 mm 1 m/S 745 mmHg 58%
    09:00 +20°C° 0 mm 2 m/S 746 mmHg 51%
    10:00 +22°C° 0 mm 3 m/S 746 mmHg 45%
    11:00 +25°C° 0 mm 4 m/S 745 mmHg 38%
    12:00 +27°C° 0 mm 5 m/S 745 mmHg 31%
    13:00 +27°C° 0 mm 5 m/S 745 mmHg 29%
    14:00 +28°C° 0 mm 5 m/S 745 mmHg 26%
    15:00 +29°C° 0 mm 6 m/S 744 mmHg 24%
    16:00 +28°C° 0 mm 5 m/S 744 mmHg 30%
    17:00 +27°C° 0 mm 4 m/S 744 mmHg 35%
    18:00 +26°C° 0 mm 3 m/S 744 mmHg 41%
    19:00 +23°C° 0 mm 2 m/S 744 mmHg 46%
    20:00 +19°C° 0 mm 2 m/S 745 mmHg 51%
    21:00 +18°C° 0 mm 1 m/S 745 mmHg 56%
    22:00 +16°C° 0 mm 1 m/S 745 mmHg 60%
    23:00 +15°C° 0 mm 1 m/S 745 mmHg 64%

    30 Mai, Donnerstag

    Zeit Temperatur Niederschläge Wind Luftdruck Luftfeuchtigkeit
    00:00 +14°C° 0 mm 1 m/S 746 mmHg 67%
    01:00 +14°C° 0 mm 1 m/S 746 mmHg 70%
    02:00 +13°C° 0 mm 1 m/S 746 mmHg 72%
    03:00 +13°C° 0 mm 1 m/S 746 mmHg 74%
    04:00 +13°C° 0 mm 1 m/S 746 mmHg 74%
    05:00 +14°C° 0 mm 1 m/S 746 mmHg 75%
    06:00 +13°C° 0 mm 0 m/S 746 mmHg 75%
    07:00 +18°C° 0 mm 1 m/S 746 mmHg 66%
    08:00 +21°C° 0 mm 1 m/S 746 mmHg 56%
    09:00 +24°C° 0 mm 2 m/S 746 mmHg 46%
    10:00 +26°C° 0 mm 3 m/S 746 mmHg 41%
    11:00 +28°C° 0 mm 4 m/S 746 mmHg 35%
    12:00 +29°C° 0 mm 5 m/S 746 mmHg 29%
    13:00 +29°C° 0 mm 5 m/S 745 mmHg 30%
    14:00 +29°C° 0 mm 5 m/S 745 mmHg 30%
    15:00 +29°C° 0 mm 5 m/S 744 mmHg 30%
    16:00 +27°C° 0 mm 4 m/S 744 mmHg 35%
    17:00 +25°C° 0 mm 4 m/S 744 mmHg 41%
    18:00 +22°C° 0 mm 3 m/S 744 mmHg 47%
    19:00 +20°C° 0 mm 2 m/S 744 mmHg 49%
    20:00 +20°C° 0 mm 1 m/S 744 mmHg 52%
    21:00 +18°C° 0 mm 1 m/S 744 mmHg 54%
    22:00 +18°C° 0 mm 1 m/S 744 mmHg 54%
    23:00 +16°C° 0 mm 1 m/S 744 mmHg 53%

    31 Mai, Freitag

    Zeit Temperatur Niederschläge Wind Luftdruck Luftfeuchtigkeit
    00:00 +16°C° 0 mm 1 m/S 744 mmHg 53%
    01:00 +15°C° 0 mm 1 m/S 744 mmHg 56%
    02:00 +14°C° 0 mm 1 m/S 744 mmHg 59%
    03:00 +14°C° 0 mm 1 m/S 744 mmHg 62%
    04:00 +14°C° 0 mm 1 m/S 744 mmHg 65%
    05:00 +14°C° 0 mm 1 m/S 744 mmHg 68%
    06:00 +14°C° 0 mm 1 m/S 744 mmHg 71%
    07:00 +16°C° 0 mm 1 m/S 744 mmHg 69%
    08:00 +17°C° 0 mm 2 m/S 744 mmHg 67%
    09:00 +19°C° 0 mm 2 m/S 745 mmHg 65%
    10:00 +21°C° 0 mm 3 m/S 744 mmHg 56%
    11:00 +24°C° 0 mm 3 m/S 744 mmHg 47%
    12:00 +26°C° 0 mm 3 m/S 744 mmHg 38%
    13:00 +27°C° 0 mm 3 m/S 744 mmHg 36%
    14:00 +27°C° 0 mm 3 m/S 743 mmHg 34%
    15:00 +28°C° 0 mm 4 m/S 743 mmHg 32%
    16:00 +27°C° 0 mm 3 m/S 743 mmHg 37%
    17:00 +27°C° 0 mm 3 m/S 743 mmHg 41%
    18:00 +26°C° 0 mm 2 m/S 743 mmHg 45%
    19:00 +23°C° 0 mm 2 m/S 743 mmHg 50%
    20:00 +19°C° 0 mm 2 m/S 744 mmHg 56%
    21:00 +18°C° 0 mm 1 m/S 744 mmHg 61%
    22:00 +15°C° 0 mm 1 m/S 744 mmHg 64%
    23:00 +14°C° 0 mm 1 m/S 744 mmHg 68%
    Mehr zeigen